Location: Unspecified
(0.0000°N, 0.0000°E)
Time: 09:08:56
(UTC+00:00)

SO-50 - Visible Passes

Search period start: 16 April 2021 00:00
Search period end: 26 April 2021 00:00
Orbit: 619 x 666 km, 64.6° (Epoch: 15 April)

Date Brightness Start Highest point End Pass type
(mag) Time Alt. Az. Time Alt. Az. Time Alt. Az.
22 Apr ? 19:07:39 10° S 19:09:34 20° SSE 19:09:34 20° SSE visible
23 Apr ? 19:31:47 10° SSW 19:36:20 83° WNW 19:38:09 36° NNE visible
24 Apr ? 18:18:08 10° SSE 18:20:57 16° ESE 18:23:44 10° ENE visible
24 Apr ? 19:57:31 10° WSW 20:01:07 23° WNW 20:04:41 10° NNW visible
25 Apr ? 18:41:20 10° S 18:45:47 54° ESE 18:50:10 10° NE visible
